Location: Unspecified
(0.0000°N, 0.0000°E)
Time: 07:14:14
(UTC+01:00)

Cosmos 1300 - Visible Passes

Search period start: 31 October 2014 00:00
Search period end: 10 November 2014 00:00
Orbit: 529 x 531 km, 82.5° (Epoch: 30 October)

Date Brightness Start Highest point End Pass type
(mag) Time Alt. Az. Time Alt. Az. Time Alt. Az.
01 Nov 2.9 06:08:09 10° N 06:12:02 81° E 06:15:56 10° S visible
02 Nov 3.0 05:57:30 10° N 06:01:22 72° E 06:05:16 10° S visible
03 Nov 3.2 05:46:51 10° N 05:50:42 64° E 05:54:34 10° SSE visible
04 Nov 3.4 05:36:12 10° N 05:40:00 57° E 05:43:50 10° SSE visible
05 Nov 3.6 05:25:32 10° N 05:29:18 51° E 05:33:06 10° SSE visible
06 Nov 3.8 05:14:52 10° NNE 05:18:36 45° E 05:22:20 10° SSE visible
07 Nov 4.0 05:04:53 14° NNE 05:07:52 40° E 05:11:32 10° SSE visible
08 Nov 4.2 04:55:30 25° NE 04:57:07 36° E 05:00:43 10° SSE visible
09 Nov 4.3 04:45:59 31° ENE 04:46:22 32° E 04:49:53 10° SSE visible
